Погода в Голуэй

Ирландия     53°17′06″N   9°02′03″W
темп.,
°C
ветер,
м/с
пор.,
м/с
влажн.,
%
обл.,
%
осадки,
мм/ч
давл.,
гПа
погр.,
м
28 июля, ср
ср2801:00+14юз358391 0.8 1007198
04:00+14з488570 2.6 1005459
07:00+13зсз61186100 5.9 1004538
10:00+14зсз8107228 1.4 10051290
13:00+16з9106131 1.9 10061707
16:00+16зсз9105917 0.4 10061674
19:00+15зсз810693 0.7 10071254
22:00+13зсз697654 0.1 1008590
29 июля, чт
чт2901:00+13зсз57829 0.3 1009461
04:00+13зсз6107844 0.0 1008652
07:00+14зсз697290 0.1 1009820
10:00+16зсз686180 0.0 10091436
13:00+16з7763100 0.1 10091191
16:00+16зсз6667100 0.1 1009991
19:00+13зсз5887100 0.4 1008489
22:00+14зсз3585100 0.4 1008279
30 июля, пт
пт3001:00+13сз2386100 0.4 1007148
04:00+13сз3689100 0.0 1007243
07:00+15сз4987100 0.6 1008647
10:00+15зсз5683100 0.5 1009556
13:00+17з897580 0.8 10091016
16:00+15з71088100 0.7 1009766
19:00+15з688594 1.1 1008621
22:00+15зсз4589100 0.1 1009260
31 июля, сб
сб3101:00+15сз228981 0.1 1010114
04:00+13ссз36949 0.0 1010194
07:00+13сз259270 0.0 1010164
10:00+16ссз358373 0.1 1011638
13:00+18с566748 0.2 1012917
16:00+18с56628 0.0 1012856
19:00+17с67692 0.0 1013961
22:00+13с49811 0.0 1014410
1 августа, вс
вс101:00+12ссз49860 0.0 1014434
04:00+12ссз498677 0.0 1015529
07:00+14ссз3771100 0.1 1015739
10:00+16с467380 0.0 1016915
13:00+18ссз456899 0.3 10161041
16:00+19ссз4566100 0.3 1016892
19:00+17ссз577320 0.5 1016638
22:00+15сз3579100 0.0 1017226